Pecos, TX

12:40 PM CST on January 17, 2017 (GMT -0600)
Pecos Municipal

Weather History for KPEQ - October, 2011

Change the Weather History Date:

Sunday, October 16, 2011

  Actual Average Record
Temperature  
Mean Temperature 70 °F -  
Max Temperature 93 °F 82 °F 98 °F (1965)
Min Temperature 47 °F 48 °F 35 °F (1952)
Cooling Degree Days 5    
Growing Degree Days 20 (Base 50)    
Moisture  
Dew Point 38 °F    
Average Humidity 39    
Maximum Humidity 72    
Minimum Humidity 10    
Precipitation  
Precipitation 0.00 in - - ()
Sea Level Pressure  
Sea Level Pressure 30.02 in    
Wind  
Wind Speed 4 mph (East)    
Max Wind Speed 9 mph    
Max Gust Speed -    
Visibility 10 miles    
Events      
Averages and records for this station are not official NWS values.
T = Trace of Precipitation, MM = Missing Value Source: NWS Daily Summary

Daily Weather History Graph

Daily Weather History Graph

Search for Another Location

Airport or City:

Trip Planner

Search our weather history database for the weather conditions in past years. The results will help you decide how hot, cold, wet, or windy it might be!

Date:

Astronomy

Oct. 16, 2011 Rise Set
Actual Time 7:57 AM CDT 7:21 PM CDT
Civil Twilight 7:33 AM CDT 7:45 PM CDT
Nautical Twilight 7:04 AM CDT 8:13 PM CDT
Astronomical Twilight 6:36 AM CDT 8:41 PM CDT
Moon 10:25 PM CDT (10/16) 12:00 PM CDT (10/16)
Length of Visible Light 12h 12m
Length of Day
11h 23m
Waning Gibbous, 82% of the Moon is Illuminated
Oct 16
Waning Gibbous
Oct 19
Last Quarter
Oct 26
New
Nov 2
First Quarter
Nov 10
Full

Hourly Weather History & Observations

Time (CDT) Temp. Dew Point Humidity Pressure Visibility Wind Dir Wind Speed Gust Speed Precip Events Conditions
12:35 AM 66.4 °F 43.7 °F 44% 30.05 in 10.0 mi ESE 6.9 mph - N/A   Clear
12:55 AM 64.8 °F 43.7 °F 46% 30.05 in 10.0 mi South 3.5 mph - N/A   Clear
1:15 AM 63.1 °F 43.0 °F 48% 30.05 in 10.0 mi Calm Calm - N/A   Clear
1:35 AM 60.6 °F 41.9 °F 50% 30.05 in 10.0 mi Calm Calm - N/A   Clear
1:55 AM 60.3 °F 42.4 °F 52% 30.05 in 10.0 mi ENE 3.5 mph - N/A   Clear
2:15 AM 60.1 °F 43.3 °F 54% 30.05 in 10.0 mi ENE 3.5 mph - N/A   Clear
2:35 AM 60.1 °F 43.3 °F 54% 30.05 in 10.0 mi ENE 6.9 mph - N/A   Clear
2:55 AM 59.4 °F 43.2 °F 55% 30.05 in 10.0 mi East 6.9 mph - N/A   Clear
3:15 AM 59.0 °F 43.5 °F 56% 30.05 in 10.0 mi East 6.9 mph - N/A   Clear
3:55 AM 56.8 °F 43.0 °F 60% 30.04 in 10.0 mi East 4.6 mph - N/A   Clear
4:15 AM 55.9 °F 43.0 °F 62% 30.05 in 10.0 mi East 4.6 mph - N/A   Clear
4:35 AM 55.4 °F 43.2 °F 63% 30.05 in 10.0 mi Calm Calm - N/A   Clear
4:55 AM 54.5 °F 42.6 °F 64% 30.04 in 10.0 mi Calm Calm - N/A   Clear
5:15 AM 51.3 °F 40.3 °F 66% 30.05 in 10.0 mi WNW 5.8 mph - N/A   Clear
5:35 AM 49.8 °F 39.6 °F 68% 30.05 in 10.0 mi WNW 4.6 mph - N/A   Clear
5:55 AM 49.6 °F 39.4 °F 68% 30.05 in 10.0 mi NW 4.6 mph - N/A   Clear
6:15 AM 50.9 °F 40.3 °F 67% 30.05 in 10.0 mi North 3.5 mph - N/A   Clear
6:35 AM 50.5 °F 39.7 °F 66% 30.06 in 10.0 mi Calm Calm - N/A   Clear
6:55 AM 48.9 °F 38.7 °F 68% 30.06 in 10.0 mi Calm Calm - N/A   Clear
7:15 AM 48.2 °F 38.7 °F 70% 30.06 in 10.0 mi West 5.8 mph - N/A   Clear
7:35 AM 48.0 °F 39.2 °F 72% 30.07 in 10.0 mi WNW 4.6 mph - N/A   Clear
7:55 AM 47.7 °F 39.2 °F 72% 30.07 in 10.0 mi WSW 6.9 mph - N/A   Clear
8:15 AM 48.0 °F 39.2 °F 72% 30.07 in 10.0 mi West 6.9 mph - N/A   Clear
8:35 AM 49.1 °F 39.6 °F 70% 30.07 in 10.0 mi WNW 4.6 mph - N/A   Clear
8:55 AM 52.0 °F 41.4 °F 67% 30.08 in 10.0 mi West 4.6 mph - N/A   Clear
9:15 AM 54.7 °F 42.3 °F 63% 30.09 in 10.0 mi NW 4.6 mph - N/A   Clear
9:35 AM 57.4 °F 43.0 °F 59% 30.09 in 10.0 mi NNW 5.8 mph - N/A   Clear
9:55 AM 59.5 °F 43.2 °F 55% 30.10 in 10.0 mi NW 4.6 mph - N/A   Clear
10:15 AM 61.7 °F 44.2 °F 53% 30.10 in 10.0 mi NW 3.5 mph - N/A   Clear
10:35 AM 63.9 °F 44.8 °F 50% 30.10 in 10.0 mi Calm Calm - N/A   Clear
10:55 AM 65.8 °F 45.3 °F 47% 30.10 in 10.0 mi Calm Calm - N/A   Clear
11:15 AM 67.6 °F 45.3 °F 45% 30.10 in 10.0 mi Calm Calm - N/A   Clear
11:35 AM 69.8 °F 45.3 °F 41% 30.09 in 10.0 mi Calm Calm - N/A   Clear
11:55 AM 72.1 °F 45.0 °F 38% 30.09 in 10.0 mi Calm Calm - N/A   Clear
12:35 PM 76.3 °F 43.9 °F 31% 30.07 in 10.0 mi Calm Calm - N/A   Clear
12:55 PM 79.0 °F 43.7 °F 29% 30.07 in 10.0 mi Calm Calm - N/A   Clear
1:15 PM 81.0 °F 43.0 °F 26% 30.05 in 10.0 mi Calm Calm - N/A   Clear
1:35 PM 82.9 °F 41.7 °F 23% 30.04 in 10.0 mi Calm Calm - N/A   Clear
1:55 PM 86.0 °F 38.8 °F 19% 30.02 in 10.0 mi East 5.8 mph - N/A   Clear
2:15 PM 88.3 °F 36.7 °F 16% 30.01 in 10.0 mi East 5.8 mph - N/A   Clear
2:35 PM 89.6 °F 35.8 °F 15% 30.00 in 10.0 mi East 4.6 mph - N/A   Clear
2:55 PM 90.5 °F 35.1 °F 14% 29.98 in 10.0 mi ESE 4.6 mph - N/A   Clear
3:15 PM 91.4 °F 33.8 °F 13% 29.98 in 10.0 mi ESE 3.5 mph - N/A   Clear
3:35 PM 91.8 °F 33.4 °F 13% 29.97 in 10.0 mi East 8.1 mph - N/A   Clear
3:55 PM 93.0 °F 32.5 °F 12% 29.96 in 10.0 mi East 4.6 mph - N/A   Clear
4:15 PM 93.2 °F 31.3 °F 11% 29.95 in 10.0 mi ESE 3.5 mph - N/A   Clear
4:35 PM 93.2 °F 30.6 °F 11% 29.95 in 10.0 mi North 3.5 mph - N/A   Clear
4:55 PM 92.7 °F 30.4 °F 11% 29.94 in 10.0 mi SE 4.6 mph - N/A   Clear
5:15 PM 93.2 °F 30.2 °F 11% 29.93 in 10.0 mi East 6.9 mph - N/A   Clear
5:35 PM 93.4 °F 30.0 °F 11% 29.93 in 10.0 mi East 6.9 mph - N/A   Clear
5:55 PM 93.2 °F 29.7 °F 10% 29.93 in 10.0 mi ESE 5.8 mph - N/A   Clear
6:15 PM 92.5 °F 29.7 °F 11% 29.92 in 10.0 mi East 6.9 mph - N/A   Clear
6:35 PM 91.6 °F 29.3 °F 11% 29.92 in 10.0 mi ESE 6.9 mph - N/A   Clear
7:15 PM 87.3 °F 28.4 °F 12% 29.92 in 10.0 mi SE 6.9 mph - N/A   Clear
7:35 PM 82.8 °F 27.7 °F 13% 29.92 in 10.0 mi ESE 9.2 mph - N/A   Clear
7:55 PM 79.9 °F 26.8 °F 14% 29.93 in 10.0 mi East 3.5 mph - N/A   Clear
8:15 PM 77.7 °F 26.2 °F 15% 29.93 in 10.0 mi ENE 4.6 mph - N/A   Clear
8:35 PM 77.5 °F 26.4 °F 15% 29.95 in 10.0 mi East 4.6 mph - N/A   Clear
8:55 PM 76.1 °F 25.9 °F 16% 29.95 in 10.0 mi ESE 5.8 mph - N/A   Clear
9:15 PM 72.7 °F 25.5 °F 17% 29.95 in 10.0 mi East 5.8 mph - N/A   Clear
9:35 PM 70.7 °F 26.1 °F 19% 29.96 in 10.0 mi East 5.8 mph - N/A   Clear
9:55 PM 69.3 °F 27.7 °F 21% 29.96 in 10.0 mi ESE 8.1 mph - N/A   Clear
10:15 PM 68.2 °F 31.1 °F 25% 29.96 in 10.0 mi SE 6.9 mph - N/A   Clear
10:35 PM 66.9 °F 32.0 °F 27% 29.96 in 10.0 mi SE 3.5 mph - N/A   Clear
10:55 PM 65.1 °F 31.3 °F 28% 29.97 in 10.0 mi Calm Calm - N/A   Clear
11:15 PM 64.4 °F 31.3 °F 29% 29.97 in 10.0 mi SSE 3.5 mph - N/A   Clear
11:35 PM 63.7 °F 31.5 °F 30% 29.96 in 10.0 mi SSE 4.6 mph - N/A   Clear
11:55 PM 64.2 °F 31.8 °F 30% 29.96 in 10.0 mi SE 5.8 mph - N/A   Clear